Notices

What's New in latest Release from April 7th, 2021:

- Updated Glossary, including Speed of Maximum Gust, and Total Hourly Precipitation

- Updated national and regional climate services offices contacts and prices information

- Addition of station inventory lists for 1981-2010, 1971-2000, and 1961-1990 Normals.

If you haven't already, please take our survey and provide feedback about our website: https://eccc.sondage-survey.ca/f/LanguageSelection.aspx?s=442ca660-fcf1-47c0-95a9-59707d6fd709

Hourly Data Report for January 10, 2020

SATURNA ISLAND CS
BRITISH COLUMBIA
Current Station Operator: ECCC - MSC

48°47'02.067" N
123°02'41.082" W
24.40 m
1017101
71473
WEZ

Download Data

Hourly Data (January 2020)
Hourly Data Report for January 10, 2020
TIME
LST
Temp Definition
°C
Dew Point Definition
°C
Rel Hum Definition
%
Precip. Amount Definition
mm

Wind Dir Definition
10's deg

Wind Spd Definition
km/h
Visibility Definition
km
Stn Press Definition
kPa
Hmdx Definition


Wind Chill Definition


Weather Definition


00:00 4.3 1.7 83 0.0 16 40   101.79     LegendNANA
01:00 4.5 1.6 82 0.0 16 40   101.70     LegendNANA
02:00 3.9 1.2 83 0.0 17 31   101.62     LegendNANA
03:00 3.1 1.4 89 0.2 14 33   101.54     LegendNANA
04:00 3.3 1.6 88 0.6 14 36   101.32     LegendNANA
05:00 3.3 1.8 90 0.2 14 43   101.12     LegendNANA
06:00 3.6 1.8 88 0.0 15 53   100.91     LegendNANA
07:00 4.1 2.3 88 0.0 16 62   100.58     LegendNANA
08:00 4.2 2.8 91 0.2 16 54   100.46     LegendNANA
09:00 4.8 3.0 88 0.4 16 53   100.29     LegendNANA
10:00 5.3 3.5 88 0.2 17 58   100.09     LegendNANA
11:00 5.2 3.6 90 0.8 17 59   100.00     LegendNANA
12:00 5.5 4.1 91 0.4 17 56   99.86     LegendNANA
13:00 5.7 4.3 91 0.0 18 47   99.85     LegendNANA
14:00 6.3 5.0 92 0.0 17 42   99.81     LegendNANA
15:00 6.6 5.1 90 0.0 16 42   99.77     LegendNANA
16:00 7.0 5.3 89 0.0 16 42   99.76     LegendNANA
17:00 6.7 5.0 89 0.0 16 47   99.68     LegendNANA
18:00 7.0 5.4 89 0.0 15 41   99.64     LegendNANA
19:00 7.0 5.4 90 0.0 16 51   99.55     LegendNANA
20:00 7.3 5.5 89 0.0 15 50   99.47     LegendNANA
21:00 7.4 5.6 88 0.2 16 44   99.49     LegendNANA
22:00 7.5 5.8 89 0.0 17 43   99.48     LegendNANA
23:00 7.5 5.8 89 0.0 17 38   99.51     LegendNANA

Notes on Data Quality.

Legend

  • E = Estimated
  • M = Missing
  • NA = Not Available*
  • [empty] = Indicates an unobserved value
Date modified: